Regional Weather Roundup
Issued by NWS

Home | Current Version | Previous Version | Text Only | Print | Product List | Glossary Off
Versions: 1 2 3 4 5 6 7 8 9 10 11 12 13 14 15 16 17 18 19 20 21 22 23 24 25 26 27 28 29 30 31 32 33 34 35 36 37 38 39 40 41 42 43 44 45 46 47 48 49 50

000
ASUS44 KMEG 310110
RWRTN
TENNESSEE HOURLY STATE WEATHER ROUNDUP
NATIONAL WEATHER SERVICE MEMPHIS TN
800 PM CDT WED JUL 30 2014

TNZ002-004-019-021-049-052-054-088>092-310200-
WEST TENNESSEE

CITY           SKY/WX    TMP DP  RH WIND       PRES   REMARKS
MEMPHIS INTL   CLOUDY    79  57  46 W5        30.06S
NWS MEMPHIS      N/A     75 N/A N/A MISG        N/A
JACKSON        CLOUDY    73  64  73 CALM      30.07S
DYERSBURG      CLOUDY    73  57  56 CALM      30.07S
UNION CITY     CLOUDY    73  64  73 CALM      30.06S
PARIS          MOCLDY    69  63  81 CALM      30.08S
LEXINGTON      CLEAR     72  64  78 CALM      30.07S
SAVANNAH       CLEAR     72  66  83 CALM      30.08S
$$

TNZ008-025-027-028-033-062-065-066-310200-
NORTH MIDDLE TENNESSEE

CITY           SKY/WX    TMP DP  RH WIND       PRES   REMARKS
NASHVILLE      CLOUDY    76  55  48 N5        30.07S
DICKSON        CLOUDY    72  57  60 CALM      30.08S
PORTLAND       PTCLDY    73  55  53 SW3       30.07S
CLARKSVILLE    MOCLDY    74  57  55 W6        30.07S
LEBANON        CLOUDY    75  57  53 CALM      30.07R
SMYRNA         CLOUDY    74  62  66 N5        30.08S
MURFREESBORO   CLOUDY    75  59  57 CALM      30.07
COOKEVILLE     CLEAR     68  66  94 CALM      30.09S
LIVINGSTON       N/A     69  59  70 CALM      30.11R
GALLATIN       CLOUDY    75  57  53 NW3       30.08S
CROSSVILLE     CLOUDY    68  60  75 CALM      30.13S
$$

TNZ061-075-076-078-094-096-097-310200-
SOUTH MIDDLE TENNESSEE

CITY           SKY/WX    TMP DP  RH WIND       PRES   REMARKS
LEWISBURG      CLOUDY    73  61  66 CALM      30.07S
FAYETTEVILLE   CLEAR     72  57  60 NE8G18    30.08S
TULLAHOMA      CLEAR     72  59  64 CALM      30.10S
WINCHESTER     CLEAR     70  63  78 CALM      30.09S
MCMINNVILLE    CLEAR     70  64  83 CALM      30.09S
COLUMBIA       CLEAR     73  63  68 CALM      30.07S
SHELBYVILLE    CLEAR     72  64  78 CALM      30.09S
$$

TNZ017-018-042-046-047-310200-
NORTHEAST TENNESSEE

CITY           SKY/WX    TMP DP  RH WIND       PRES   REMARKS
TRI CITIES     MOCLDY    67  56  67 N3        30.10R
ELIZABETHTON   CLEAR     61  55  82 CALM        N/A
$$

TNZ012-013-036-069-073-074-310200-
CENTRAL EAST TENNESSEE

CITY           SKY/WX    TMP DP  RH WIND       PRES   REMARKS
KNOXVILLE      CLOUDY    71  56  58 CALM      30.07S
OAK RIDGE      CLOUDY    70  61  73 CALM      30.10R
GATLINBURG     CLEAR     66  59  77 CALM      30.09R
MORRISTOWN     CLEAR     70  61  73 CALM      30.11R
$$

TNZ083-085-099-310200-
SOUTHEAST TENNESSEE

CITY           SKY/WX    TMP DP  RH WIND       PRES   REMARKS
CHATTANOOGA    MOCLDY    74  57  55 NW5       30.07S
$$

SKY/WX REPORTED AS FAIR MEANS FEW OR NO CLOUDS BELOW
12 THOUSAND FEET.




USA.gov is the U.S. government's official web portal to all federal, state and local government web resources and services.